Date String (YYYY-MM-DD hh:mm:ss) UTC,Instrument flags,Ambient pressure (hPa),Sample flow (lpm),Bypass flow (lpm),Sample temperature (°C),Ambient temperature (°C),ASC tube jacket temperature (°C),LED temperature (°C),Box temperature (°C),Sample RH (%),Span deviation,Mass concentration (μg/m³),Mass concentration (μg/m³),Mass concentration (μg/m³)
DateTimeUTC,F1_M11,P_M11,Q1_M11,Q2_M11,T1_M11,T2_M11,T3_M11,T4_M11,T5_M11,U1_M11,ZSPAN_M11,X0_M11,X2_M11,X1_M11
2022-09-17 05:00:00,,0824.4,5.00,0.00,30.2,28.9,00.0,38.9,32.0,17.2,0000.0,0003.54,0002.03,0001.80
2022-09-17 05:01:00,,0824.5,5.01,0.00,30.2,28.9,00.0,38.9,32.0,17.2,0000.0,0002.54,0002.02,0001.80
2022-09-17 05:02:00,,0824.4,5.00,0.00,30.2,29.0,00.0,38.9,32.1,17.2,0000.0,0002.41,0002.02,0001.81
2022-09-17 05:03:00,,0824.5,5.00,0.00,30.2,29.0,00.0,38.9,32.1,17.2,0000.0,0002.41,0002.03,0001.82
2022-09-17 05:04:00,,0824.4,5.01,0.00,30.3,29.0,00.0,39.0,32.1,17.2,0000.0,0002.42,0002.03,0001.84
2022-09-17 05:05:00,,0824.4,4.99,0.00,30.3,29.0,00.0,39.0,32.1,17.1,0000.0,0002.41,0002.03,0001.84
2022-09-17 05:06:00,,0824.4,5.00,0.00,30.3,29.0,00.0,39.0,32.1,16.9,0000.0,0002.44,0002.05,0001.85
2022-09-17 05:07:00,,0824.4,5.01,0.00,30.3,29.0,00.0,39.0,32.1,16.9,0000.0,0002.44,0002.05,0001.85
2022-09-17 05:08:00,,0824.4,4.99,0.00,30.3,29.0,00.0,39.0,32.2,16.9,0000.0,0002.38,0002.03,0001.85
2022-09-17 05:09:00,,0824.3,5.00,0.00,30.4,29.1,00.0,39.0,32.2,16.9,0000.0,0002.35,0002.02,0001.85
2022-09-17 05:10:00,,0824.3,5.01,0.00,30.4,29.1,00.0,39.1,32.2,16.6,0000.0,0002.32,0002.00,0001.84
2022-09-17 05:11:00,,0824.3,4.99,0.00,30.4,29.1,00.0,39.1,32.2,16.5,0000.0,0002.30,0001.98,0001.82
2022-09-17 05:12:00,,0824.3,5.01,0.00,30.4,29.1,00.0,39.1,32.2,16.3,0000.0,0002.26,0001.95,0001.80
2022-09-17 05:13:00,,0824.3,4.99,0.00,30.4,29.1,00.0,39.1,32.2,16.3,0000.0,0002.28,0001.96,0001.78
2022-09-17 05:14:00,,0824.3,5.00,0.00,30.4,29.1,00.0,39.1,32.2,16.4,0000.0,0002.30,0001.95,0001.76
2022-09-17 05:15:00,,0824.3,5.01,0.00,30.4,29.1,00.0,39.1,32.2,16.1,0000.0,0002.27,0001.90,0001.73
2022-09-17 05:16:00,,0824.3,4.99,0.00,30.4,29.1,00.0,39.2,32.2,16.3,0000.0,0002.24,0001.86,0001.70
2022-09-17 05:17:00,,0824.3,5.00,0.00,30.5,29.1,00.0,39.2,32.3,16.4,0000.0,0002.68,0001.85,0001.70
2022-09-17 05:18:00,,0824.3,5.00,0.00,30.5,29.1,00.0,39.2,32.3,16.4,0000.0,0002.83,0001.84,0001.70
2022-09-17 05:19:00,,0824.3,4.99,0.00,30.5,29.2,00.0,39.2,32.3,16.1,0000.0,0002.85,0001.83,0001.67
2022-09-17 05:20:00,,0824.3,5.02,0.00,30.5,29.1,00.0,39.2,32.3,16.4,0000.0,0003.40,0001.80,0001.65
2022-09-17 05:21:00,,0824.3,5.00,0.00,30.5,27.8,00.0,39.2,32.3,16.5,0000.0,0003.75,0001.83,0001.65
2022-09-17 05:22:00,,0824.3,5.00,0.00,30.4,26.7,00.0,39.1,32.2,16.4,0000.0,0003.80,0001.85,0001.65
2022-09-17 05:23:00,,0824.3,5.00,0.00,30.4,26.7,00.0,39.1,32.0,16.4,0000.0,0003.88,0001.87,0001.65
2022-09-17 05:24:00,,0824.3,5.00,0.00,30.2,27.0,00.0,39.0,31.8,16.3,0000.0,0003.91,0001.87,0001.65
2022-09-17 05:25:00,,0824.3,5.00,0.00,30.2,27.3,00.0,39.0,31.7,16.6,0000.0,0003.86,0001.85,0001.64
2022-09-17 05:26:00,,0824.3,5.01,0.00,30.1,27.6,00.0,39.0,31.8,16.4,0000.0,0003.85,0001.87,0001.64
2022-09-17 05:27:00,,0824.3,5.00,0.00,30.1,27.9,00.0,38.9,31.8,16.5,0000.0,0003.84,0001.87,0001.64
2022-09-17 05:28:00,,0824.3,5.00,0.00,30.1,28.0,00.0,38.9,31.8,16.5,0000.0,0003.50,0001.83,0001.63
2022-09-17 05:29:00,,0824.4,5.00,0.00,30.1,28.2,00.0,38.9,31.8,16.7,0000.0,0003.35,0001.80,0001.60
2022-09-17 05:30:00,,0824.2,5.00,0.00,30.1,28.3,00.0,38.9,31.9,16.6,0000.0,0003.37,0001.80,0001.61
2022-09-17 05:31:00,,0824.3,5.00,0.00,30.1,28.4,00.0,38.9,31.9,16.6,0000.0,0002.77,0001.79,0001.60
2022-09-17 05:32:00,,0824.2,5.00,0.00,30.1,28.5,00.0,38.9,31.9,16.5,0000.0,0002.45,0001.75,0001.58
2022-09-17 05:33:00,,0824.3,4.99,0.00,30.1,28.6,00.0,38.9,31.9,16.5,0000.0,0002.46,0001.73,0001.56
2022-09-17 05:34:00,,0824.5,5.01,0.00,30.1,28.6,00.0,38.9,31.9,16.6,0000.0,0002.37,0001.70,0001.56
2022-09-17 05:35:00,,0824.3,4.99,0.00,30.1,28.7,00.0,38.9,31.9,16.6,0000.0,0002.33,0001.69,0001.56
2022-09-17 05:36:00,,0824.2,5.01,0.00,30.1,28.7,00.0,38.9,32.0,16.5,0000.0,0002.34,0001.69,0001.55
2022-09-17 05:37:00,,0824.4,5.01,0.00,30.1,28.7,00.0,38.9,32.0,16.4,0000.0,0002.32,0001.67,0001.54
2022-09-17 05:38:00,,0824.3,4.99,0.00,30.2,28.8,00.0,38.9,32.0,16.4,0000.0,0002.34,0001.68,0001.53
2022-09-17 05:39:00,,0824.3,5.02,0.00,30.2,28.8,00.0,38.9,32.0,16.4,0000.0,0002.15,0001.68,0001.54
2022-09-17 05:40:00,,0824.3,4.99,0.00,30.2,28.8,00.0,38.9,32.0,16.3,0000.0,0002.18,0001.70,0001.54
2022-09-17 05:41:00,,0824.3,5.00,0.00,30.2,28.8,00.0,38.9,32.0,16.4,0000.0,0002.16,0001.71,0001.55
2022-09-17 05:42:00,,0824.3,5.01,0.00,30.2,28.9,00.0,38.9,32.0,16.6,0000.0,0002.29,0001.72,0001.56
2022-09-17 05:43:00,,0824.3,5.00,0.00,30.2,28.9,00.0,39.0,32.0,16.3,0000.0,0002.41,0001.74,0001.55
2022-09-17 05:44:00,,0824.4,4.99,0.00,30.2,28.9,00.0,39.0,32.1,16.1,0000.0,0002.37,0001.73,0001.55
2022-09-17 05:45:00,,0824.3,5.00,0.00,30.3,28.9,00.0,39.0,32.1,16.2,0000.0,0002.38,0001.74,0001.54
2022-09-17 05:46:00,,0824.3,5.01,0.00,30.3,28.9,00.0,39.0,32.1,16.4,0000.0,0002.34,0001.72,0001.54
2022-09-17 05:47:00,,0824.3,4.99,0.00,30.3,28.9,00.0,39.0,32.1,16.5,0000.0,0002.34,0001.72,0001.54
2022-09-17 05:48:00,,0824.3,5.00,0.00,30.3,29.0,00.0,39.0,32.1,16.5,0000.0,0002.30,0001.71,0001.54
2022-09-17 05:49:00,,0824.3,4.99,0.00,30.3,29.0,00.0,39.0,32.1,16.3,0000.0,0002.32,0001.73,0001.54
2022-09-17 05:50:00,,0824.2,4.99,0.00,30.3,29.0,00.0,39.0,32.1,16.3,0000.0,0002.32,0001.73,0001.53
2022-09-17 05:51:00,,0824.2,5.01,0.00,30.3,29.0,00.0,39.0,32.1,16.3,0000.0,0002.31,0001.72,0001.53
2022-09-17 05:52:00,,0824.2,4.99,0.00,30.3,29.0,00.0,39.1,32.1,16.3,0000.0,0002.38,0001.72,0001.52
2022-09-17 05:53:00,,0824.2,5.01,0.00,30.4,29.0,00.0,39.1,32.2,16.2,0000.0,0002.39,0001.72,0001.52
2022-09-17 05:54:00,,0824.2,4.99,0.00,30.4,29.0,00.0,39.1,32.2,16.1,0000.0,0002.31,0001.71,0001.51
2022-09-17 05:55:00,,0824.2,5.01,0.00,30.4,29.0,00.0,39.1,32.2,16.2,0000.0,0002.35,0001.70,0001.51
2022-09-17 05:56:00,,0824.3,4.99,0.00,30.4,29.0,00.0,39.1,32.2,16.2,0000.0,0002.38,0001.70,0001.51
2022-09-17 05:57:00,,0824.3,5.01,0.00,30.4,29.1,00.0,39.1,32.2,16.1,0000.0,0002.36,0001.69,0001.50
2022-09-17 05:58:00,,0824.2,5.00,0.00,30.4,29.1,00.0,39.1,32.2,16.2,0000.0,0002.41,0001.71,0001.50
2022-09-17 05:59:00,,0824.2,4.99,0.00,30.4,29.1,00.0,39.1,32.2,16.2,0000.0,0002.51,0001.76,0001.51
